TimeEDT,TemperatureF,Dew PointF,Humidity,Sea Level PressureIn,VisibilityMPH,Wind Direction,Wind SpeedMPH,Gust SpeedMPH,PrecipitationIn,Events,Conditions,WindDirDegrees,DateUTC
12:54 AM,53.1,52.0,96,30.19,-9999.0,NE,9.2,-,N/A,,Unknown,40,2013-10-11 04:54:00
1:54 AM,52.0,52.0,100,30.17,-9999.0,NNE,12.7,-,N/A,,Unknown,30,2013-10-11 05:54:00
2:54 AM,53.1,52.0,96,30.16,-9999.0,NE,10.4,-,N/A,,Unknown,40,2013-10-11 06:54:00
3:54 AM,53.1,52.0,96,30.15,-9999.0,NE,6.9,-,N/A,,Unknown,50,2013-10-11 07:54:00
4:54 AM,52.0,52.0,100,30.15,-9999.0,NNE,10.4,-,N/A,,Unknown,20,2013-10-11 08:54:00
5:54 AM,51.1,51.1,100,30.16,-9999.0,North,11.5,-,N/A,,Unknown,10,2013-10-11 09:54:00
6:54 AM,51.1,51.1,100,30.16,-9999.0,North,9.2,-,N/A,,Unknown,10,2013-10-11 10:54:00
7:54 AM,51.1,51.1,100,30.16,-9999.0,NNE,12.7,-,N/A,,Unknown,20,2013-10-11 11:54:00
8:54 AM,53.1,52.0,96,30.17,-9999.0,NNE,8.1,-,N/A,,Unknown,30,2013-10-11 12:54:00
9:54 AM,57.0,51.1,81,30.17,-9999.0,NNE,9.2,17.3,N/A,,Unknown,30,2013-10-11 13:54:00
10:54 AM,62.1,53.1,72,30.17,-9999.0,ENE,6.9,16.1,N/A,,Unknown,60,2013-10-11 14:54:00
11:54 AM,64.9,53.1,65,30.17,-9999.0,NE,5.8,-,N/A,,Unknown,40,2013-10-11 15:54:00
12:54 PM,64.9,54.0,68,30.16,-9999.0,Variable,6.9,-,N/A,,Unknown,0,2013-10-11 16:54:00
1:54 PM,64.9,53.1,65,30.14,-9999.0,ENE,8.1,-,N/A,,Unknown,70,2013-10-11 17:54:00
2:54 PM,63.0,51.1,65,30.14,-9999.0,ENE,5.8,-,N/A,,Unknown,70,2013-10-11 18:54:00
3:54 PM,62.1,41.0,46,30.13,-9999.0,ENE,8.1,-,N/A,,Unknown,60,2013-10-11 19:54:00
4:54 PM,59.0,43.0,55,30.14,-9999.0,ENE,9.2,-,N/A,,Unknown,70,2013-10-11 20:54:00
5:54 PM,55.9,45.0,67,30.14,-9999.0,NE,9.2,-,N/A,,Unknown,50,2013-10-11 21:54:00
6:54 PM,54.0,46.9,77,30.16,-9999.0,ENE,10.4,-,N/A,,Unknown,60,2013-10-11 22:54:00
7:54 PM,55.0,50.0,83,30.16,-9999.0,NE,10.4,-,N/A,,Unknown,50,2013-10-11 23:54:00
8:54 PM,55.0,48.0,77,30.16,-9999.0,NE,11.5,-,N/A,,Unknown,50,2013-10-12 00:54:00
9:54 PM,54.0,48.0,80,30.17,-9999.0,NE,9.2,-,N/A,,Unknown,50,2013-10-12 01:54:00
10:54 PM,54.0,50.0,86,30.17,-9999.0,NNE,10.4,-,N/A,,Unknown,30,2013-10-12 02:54:00
11:54 PM,54.0,48.0,80,30.17,-9999.0,NNE,11.5,-,N/A,,Unknown,30,2013-10-12 03:54:00